{"data":{"norad_id":58081,"intl_designator":"2023-160G","name":"STARLINK-30602","alt_names":[],"object_type":"PAYLOAD","status":"ACTIVE","operator":null,"country":"US","launch_date":"2023-10-18","launch_site_code":"AFETR","launch_vehicle":null,"mission":null,"orbit_class":"UNKNOWN","rcs_meters":null,"size_class":null,"mass_kg":null,"dimensions":null,"purposes":["comms"],"wikipedia_slug":null,"has_3d_model":false,"image_url":null,"decayed_at":null,"tle_current":{"epoch":"2026-05-24T23:39:55.938240Z","epoch_age_seconds":80261,"freshness":"FRESH","line1":"1 58081U 23160G   26144.98606410  .00017800  00000+0  70570-3 0  9992","line2":"2 58081  43.0048   9.6377 0001224 254.9019 105.1697 15.25093963144588","mean_motion":15.25093963,"eccentricity":0.0001224,"inclination_deg":43.0048,"raan_deg":9.6377,"arg_perigee_deg":254.9019,"mean_anomaly_deg":105.1697,"bstar":0.0007057,"rev_number":14458,"period_min":94.420411786785,"perigee_km":489.6625738609,"apogee_km":491.34401700522,"semimajor_km":6868.6402954331,"source":"CELESTRAK","updated_at":"2026-05-25T13:38:18.522040Z"}}}